STARLINK-4629, 53968

Orbit data source: Space-Track

STARLINK-4629, 53968 is a payload satellite owned by SpaceX/Seattle (US) in LEO that was launched on Wed, 05 Oct 2022 UTC via an FALCON 9 launch vehicle from the Air Force Western Test Range (AFWTR). Payload-class satellites include a variety of spacecraft equipped with specific instruments for various scientific and technological missions. These include communications satellites like Starlink; space stations such as the ISS; scientific satellites like the Hubble; Earth observation satellites from companies like Planet Labs, Umbra, and HawkEye 360; GPS; miniature CubeSats for education and research; and military/defense satellites.

Loading next visibility...
Identifier
53968, 2022-125E
Orbit
LEO
Country
Flag of USUS
Related business
Manufacturer
SpaceX/Seattle
Mission
Operational Commercial Communications
Bus & Motor
STARLINK, Unknown motor
Mass
305 kg wet, ~290 kg dry
Launch date (UTC)
2022-10-05 (4 years ago)
Launch vehicle
FALCON 9
Launch site
Air Force Western Test Range (AFWTR)
Object type
Payload
Rocket body
Debris
Shape & HBR
Box + 1 Pan, 10.1 m
Radar Cross Section
13.562 m², Large (>1 m²)

Expand to show TLE details & history
Last TLE update: 3 days ago

TLE from 3 days ago
0 STARLINK-4629
1 53968U 22125E   26170.83433086 -.00000624  00000-0 -21112-4 0  9999
2 53968  53.1609 125.3825 0001393  73.6289 286.4855 15.08831117204744
Epoch: 2026-06-19T20:01Z
TLE epoch observation values (Epoch: 2026-06-19T20:01:26.186Z)
Latitude
-0.00005°
Longitude
-83.03427°
Altitude
540.389 km
Speed
7.594 km/s
True Right ascension
08h 21m 31s
True Declination
0° 00' 00"
Sunlit
Object was in daylight at epoch
Visualization orbit readout
Latitude
Unknown
Longitude
Unknown
Altitude
Unknown
Speed
Unknown
Apparent Right ascension
Unknown
Apparent Declination
Unknown
Sunlit
N/A
Visualization observer readout
Local Sidereal Time
21:32:46
Azimuth
Unknown
Elevation
Unknown
Doppler factor
Unknown
Orbital elements
Apogee altitude
540.988 km
Perigee altitude
539.061 km
Semi-major axis
6,918.162 km
Eccentricity
0.00014
Inclination
53.1609°
RAAN
125.3825°
Arg. of periapsis
73.6289°
True anomaly
286.47019°
Mean anomaly
286.4855°
Eccentric anomaly
286.47785°
Mean motion
3.77187 °/min
Orbital period
95.44 mins
BSTAR
-0.000021112
Loading maneuver chart data...
Computing Atmospheric mass density...
Loading historical data...
Loading historical data...
Loading historical data...
Loading historical data...
Loading historical data...
Loading historical data...
Loading historical data...

Documentation

Showing up to 5 results
|